Regional Weather Roundup
Issued by NWS State College, PA

Home | Current Version | Previous Version | Graphics & Text | Print | Product List | Glossary Off
Versions: 1 2 3 4 5 6 7 8 9 10 11 12 13 14 15 16 17 18 19 20 21 22 23 24 25 26 27 28 29 30 31 32 33 34 35 36 37 38 39 40 41 42 43 44 45 46 47 48 49 50

000
ASUS41 KCTP 302003
RWRCTP

REGIONAL WEATHER ROUNDUP
NATIONAL WEATHER SERVICE STATE COLLEGE PA
400 PM EDT SUN AUG 30 2015

Note: "fair" indicates few or no clouds below 12,000 feet with no
significant weather and/or obstructions to visibility.

* = STATION THAT DOES NOT REPORT PRECIPITATION /E.G. RAIN...SNOW...ETC/
    THUNDER OR FOG.

PAZ002>004-007>009-013>016-020>023-029>032-302100-
WESTERN PENNSYLVANIA

CITY           SKY/WX    TMP DP  RH WIND       PRES   REMARKS
ERIE           SUNNY     78  64  61 W6        30.06F
MEADVILLE      PTSUNNY   79  64  60 W6        30.09F
FRANKLIN*      PTSUNNY   77  64  65 SW5       30.11F
NEW CASTLE     FAIR      84  71  65 SW7       30.08F
BEAVER COUNTY  NOT AVBL
BUTLER*        PTSUNNY   77  66  69 N3        30.11F
PITTSBURGH INT PTSUNNY   82  64  54 W5        30.08F
PITTSBURGH     MOSUNNY   84  60  44 VRB5      30.07F
INDIANA*       MOSUNNY   84  64  51 VRB3G13   30.12F
LATROBE        MOSUNNY   84  64  51 W9        30.10F
WASHINGTON CO* PTSUNNY   84  64  51 W9        30.09F
$$

PAZ004>006-010>012-017>019-024>028-033>037-041-042-045-046-049>053-302100-
CENTRAL PENNSYLVANIA

CITY           SKY/WX    TMP DP  RH WIND       PRES   REMARKS
BRADFORD       CLOUDY    75  62  64 SW7       30.12F
DUBOIS         MOSUNNY   80  63  55 W9G17     30.10F
CLEARFIELD     MOSUNNY   83  63  50 SW10      30.10F
JOHNSTOWN      PTSUNNY   80  60  50 NW10      30.14F
ALTOONA        PTSUNNY   85  59  41 W8        30.10F
STATE COLLEGE  MOSUNNY   82  64  54 W7        30.08F
WILLIAMSPORT   MOSUNNY   85  64  49 VRB3      30.02F
SELINSGROVE    MOSUNNY   83  68  60 CALM      30.05F
FT INDIANTOWN  CLOUDY    85  67  56 SW10      30.05F
CAPITAL CITY   CLOUDY    85  68  56 CALM      30.05F
HARRISBURG     CLOUDY    86  69  56 CALM      30.04F
YORK           PTSUNNY   86  67  52 SW6       30.05F
$$

PAZ038>040-043-044-047-048-054-055-060>062-067>071-302100-
EASTERN PENNSYLVANIA

CITY           SKY/WX    TMP DP  RH WIND       PRES   REMARKS
SCRANTON       PTSUNNY   88  61  40 W13       30.04F
MOUNT POCONO   PTSUNNY   81  63  54 W8        30.11F
ALLENTOWN      PTSUNNY   87  63  44 SW9       30.04F
QUAKERTOWN*    CLOUDY    86  66  51 SW9       30.06F
READING        CLOUDY    86  63  45 W10       30.04F
LANCASTER      PTSUNNY   86  66  51 W7        30.05F
COATESVILLE    PTCLDY    84  68  58 S3        30.08F
POTTSTOWN      PTSUNNY   87  66  49 S7        30.06F
BLUE BELL      PTSUNNY   88  68  51 W5        30.04F
DOYLESTOWN     PTSUNNY   85  63  47 SW8       30.04F
WILLOW GROVE   NOT AVBL
NORTH PHILA    MOSUNNY   90  60  36 SW13      30.05F
PHILADELPHIA   PTSUNNY   90  64  42 SW14      30.05F
$$


USA.gov is the U.S. government's official web portal to all federal, state and local government web resources and services.